Location: Gwatt
(46.7204°N, 7.6223°E)
Time: 20:46:37
(UTC+00:00)

Vanguard 1 Rocket - All Passes

Search period start: 19 January 2021 00:00
Search period end: 29 January 2021 00:00
Orbit: 655 x 4221 km, 34.3° (Epoch: 18 January)

Date Brightness Start Highest point End Pass type
(mag) Time Alt. Az. Time Alt. Az. Time Alt. Az.
19 Jan - 13:34:23 10° SW 13:37:33 19° S 13:41:09 10° SE daylight
19 Jan - 15:57:44 10° SW 16:01:41 21° S 16:07:06 10° SE daylight
19 Jan - 18:24:14 10° SW 18:26:50 12° SSW 18:29:52 10° S visible
20 Jan - 12:24:37 10° SSW 12:27:04 14° SSE 12:29:33 10° SE daylight
20 Jan - 14:47:29 10° SW 14:50:59 21° S 14:55:25 10° SE daylight
20 Jan - 17:12:16 10° SW 17:15:37 14° SSW 17:19:51 10° SSE visible
21 Jan - 11:15:43 10° S 11:16:31 10° SSE 11:17:17 10° SSE daylight
21 Jan - 13:37:17 10° SW 13:40:27 19° S 13:44:00 10° SE daylight
21 Jan - 16:01:21 10° SW 16:04:40 17° S 16:08:53 10° SSE daylight
22 Jan - 12:27:02 10° SSW 12:29:58 17° S 12:32:51 10° SE daylight
22 Jan - 14:50:47 10° SW 14:53:57 18° S 14:57:46 10° SE daylight
23 Jan - 11:16:50 10° SSW 11:19:24 14° SSE 11:21:45 10° SE daylight
23 Jan - 13:40:17 10° SW 13:43:23 18° S 13:46:45 10° SE daylight
23 Jan - 16:05:33 10° SW 16:07:38 12° SSW 16:10:00 10° S daylight
24 Jan - 10:07:02 10° S 10:08:43 11° SSE 10:10:15 10° SSE daylight
24 Jan - 12:29:41 10° SW 12:32:53 18° S 12:35:58 10° SE daylight
24 Jan - 14:54:20 10° SW 14:56:54 14° S 14:59:47 10° SSE daylight
25 Jan - 11:18:55 10° SW 11:22:20 17° S 11:25:19 10° SE daylight
25 Jan - 13:43:27 10° SW 13:46:19 17° S 13:49:20 10° SSE daylight
26 Jan - 10:08:02 10° SSW 10:11:41 15° S 10:14:38 10° SE daylight
26 Jan - 12:32:30 10° SW 12:35:49 19° S 12:38:56 10° SE daylight
26 Jan - 14:58:40 10° SSW 14:59:49 11° SSW 15:01:01 10° S daylight
27 Jan - 08:57:23 10° S 09:00:48 13° SSE 09:03:36 10° SE daylight
27 Jan - 11:21:17 10° SW 11:25:17 20° S 11:28:36 10° SE daylight
27 Jan - 13:46:49 10° SW 13:49:12 14° SSW 13:51:41 10° SSE daylight
28 Jan - 07:48:03 10° S 07:49:39 11° SSE 07:51:06 10° SSE daylight
28 Jan - 10:09:52 10° SW 10:14:38 19° S 10:18:16 10° SE daylight
28 Jan - 12:35:25 10° SW 12:38:43 18° S 12:41:45 10° SE daylight
